When you browse on this site, cookies collect data to enhance your experience and personalize the content and advertising you see.
Visit our Privacy Policy to learn more. By continuing to use the site, you agree to this use of cookies and data.
  • In United Kingdom
  • List of Countries
  • For 7 days
  • Water Temperature
  • Weather Map
  • Weather Widgets
  • user-avatar
    Login

    Hourly Weather Keminmaa

    Today, 16 September, Monday

    Time Temperature Precipitation Wind Pressure Humidity
    00:00 +3°C° 0 mm 6 mps 742 mmHg 76%
    01:00 +3°C° 0 mm 6 mps 743 mmHg 77%
    02:00 +2°C° 0 mm 6 mps 743 mmHg 78%
    03:00 +2°C° 0 mm 5 mps 743 mmHg 80%
    04:00 +1°C° 0 mm 5 mps 744 mmHg 82%
    05:00 +1°C° 0 mm 5 mps 744 mmHg 84%
    06:00 +1°C° 0 mm 5 mps 744 mmHg 83%
    07:00 +1°C° 0 mm 5 mps 744 mmHg 81%
    08:00 +2°C° 0 mm 5 mps 744 mmHg 80%
    09:00 +2°C° 0 mm 5 mps 744 mmHg 78%
    10:00 +3°C° 0 mm 5 mps 744 mmHg 76%
    11:00 +5°C° 0 mm 5 mps 744 mmHg 75%
    12:00 +5°C° 0 mm 5 mps 744 mmHg 78%
    13:00 +5°C° 0 mm 5 mps 745 mmHg 81%
    14:00 +5°C° 0 mm 5 mps 745 mmHg 84%
    15:00 +5°C° 0.1 mm 5 mps 745 mmHg 86%
    16:00 +5°C° 0.1 mm 4 mps 745 mmHg 88%
    17:00 +5°C° 0.1 mm 4 mps 745 mmHg 90%
    18:00 +5°C° 0.1 mm 4 mps 745 mmHg 91%
    19:00 +5°C° 0.1 mm 4 mps 745 mmHg 92%
    20:00 +5°C° 0.1 mm 4 mps 745 mmHg 94%
    21:00 +4°C° 0 mm 4 mps 745 mmHg 94%
    22:00 +4°C° 0 mm 4 mps 745 mmHg 95%
    23:00 +3°C° 0 mm 4 mps 746 mmHg 95%

    Tomorrow, 17 September, Tuesday

    Time Temperature Precipitation Wind Pressure Humidity
    00:00 +4°C° 0 mm 4 mps 746 mmHg 94%
    01:00 +4°C° 0 mm 4 mps 746 mmHg 94%
    02:00 +5°C° 0 mm 4 mps 746 mmHg 93%
    03:00 +4°C° 0 mm 4 mps 746 mmHg 94%
    04:00 +4°C° 0 mm 4 mps 746 mmHg 95%
    05:00 +4°C° 0 mm 4 mps 746 mmHg 96%
    06:00 +4°C° 0 mm 4 mps 747 mmHg 93%
    07:00 +4°C° 0 mm 4 mps 747 mmHg 91%
    08:00 +5°C° 0 mm 5 mps 747 mmHg 89%
    09:00 +5°C° 0 mm 4 mps 748 mmHg 85%
    10:00 +6°C° 0 mm 4 mps 748 mmHg 80%
    11:00 +6°C° 0 mm 4 mps 749 mmHg 75%
    12:00 +7°C° 0 mm 5 mps 749 mmHg 71%
    13:00 +7°C° 0 mm 5 mps 749 mmHg 66%
    14:00 +7°C° 0 mm 5 mps 749 mmHg 62%
    15:00 +7°C° 0 mm 5 mps 750 mmHg 62%
    16:00 +6°C° 0 mm 5 mps 750 mmHg 62%
    17:00 +6°C° 0 mm 5 mps 750 mmHg 62%
    18:00 +5°C° 0 mm 4 mps 751 mmHg 66%
    19:00 +4°C° 0 mm 4 mps 751 mmHg 70%
    20:00 +3°C° 0 mm 4 mps 751 mmHg 74%
    21:00 +3°C° 0 mm 4 mps 752 mmHg 76%
    22:00 +3°C° 0 mm 4 mps 752 mmHg 79%
    23:00 +1°C° 0 mm 4 mps 752 mmHg 81%

    Day after tomorrow, 18 September, Wednesday

    Time Temperature Precipitation Wind Pressure Humidity
    00:00 +1°C° 0 mm 4 mps 753 mmHg 84%
    01:00 0°C° 0 mm 4 mps 753 mmHg 87%
    02:00 -1°C° 0 mm 4 mps 753 mmHg 90%
    03:00 -1°C° 0 mm 4 mps 753 mmHg 91%
    04:00 -2°C° 0 mm 4 mps 754 mmHg 92%
    05:00 -1°C° 0 mm 3 mps 754 mmHg 93%
    06:00 0°C° 0 mm 3 mps 754 mmHg 88%
    07:00 0°C° 0 mm 3 mps 754 mmHg 83%
    08:00 +1°C° 0 mm 3 mps 755 mmHg 78%
    09:00 +2°C° 0 mm 3 mps 755 mmHg 72%
    10:00 +3°C° 0 mm 3 mps 755 mmHg 66%
    11:00 +5°C° 0 mm 3 mps 755 mmHg 60%
    12:00 +5°C° 0 mm 3 mps 756 mmHg 56%
    13:00 +7°C° 0 mm 3 mps 756 mmHg 52%
    14:00 +7°C° 0 mm 4 mps 756 mmHg 49%
    15:00 +7°C° 0 mm 3 mps 756 mmHg 51%
    16:00 +7°C° 0 mm 3 mps 756 mmHg 54%
    17:00 +7°C° 0 mm 3 mps 756 mmHg 56%
    18:00 +4°C° 0 mm 3 mps 756 mmHg 62%
    19:00 +3°C° 0 mm 3 mps 757 mmHg 67%
    20:00 +2°C° 0 mm 3 mps 757 mmHg 72%
    21:00 +1°C° 0 mm 3 mps 757 mmHg 74%
    22:00 +1°C° 0 mm 3 mps 757 mmHg 76%
    23:00 0°C° 0 mm 3 mps 758 mmHg 78%

    19 September, Thursday

    Time Temperature Precipitation Wind Pressure Humidity
    00:00 0°C° 0 mm 3 mps 758 mmHg 80%
    01:00 -1°C° 0 mm 4 mps 758 mmHg 82%
    02:00 -2°C° 0 mm 4 mps 759 mmHg 84%
    03:00 -2°C° 0 mm 4 mps 759 mmHg 85%
    04:00 -2°C° 0 mm 4 mps 759 mmHg 85%
    05:00 -2°C° 0 mm 4 mps 759 mmHg 86%
    06:00 -1°C° 0 mm 4 mps 759 mmHg 79%
    07:00 0°C° 0 mm 4 mps 759 mmHg 73%
    08:00 +1°C° 0 mm 4 mps 759 mmHg 66%
    09:00 +3°C° 0 mm 4 mps 759 mmHg 60%
    10:00 +4°C° 0 mm 4 mps 760 mmHg 54%
    11:00 +6°C° 0 mm 4 mps 760 mmHg 48%
    12:00 +6°C° 0 mm 4 mps 760 mmHg 46%
    13:00 +7°C° 0 mm 4 mps 760 mmHg 43%
    14:00 +8°C° 0 mm 4 mps 760 mmHg 40%
    15:00 +7°C° 0 mm 4 mps 760 mmHg 44%
    16:00 +7°C° 0 mm 4 mps 760 mmHg 48%
    17:00 +6°C° 0 mm 4 mps 760 mmHg 52%
    18:00 +5°C° 0 mm 4 mps 760 mmHg 60%
    19:00 +3°C° 0 mm 4 mps 760 mmHg 68%
    20:00 +1°C° 0 mm 4 mps 760 mmHg 75%
    21:00 0°C° 0 mm 4 mps 760 mmHg 77%
    22:00 0°C° 0 mm 4 mps 761 mmHg 78%
    23:00 -1°C° 0 mm 4 mps 761 mmHg 80%

    20 September, Friday

    Time Temperature Precipitation Wind Pressure Humidity
    00:00 -1°C° 0 mm 4 mps 761 mmHg 79%
    01:00 -2°C° 0 mm 4 mps 761 mmHg 79%
    02:00 -2°C° 0 mm 4 mps 761 mmHg 79%
    03:00 -1°C° 0 mm 3 mps 761 mmHg 80%
    04:00 -2°C° 0 mm 3 mps 761 mmHg 80%
    05:00 -2°C° 0 mm 3 mps 761 mmHg 81%
    06:00 -1°C° 0 mm 2 mps 761 mmHg 77%
    07:00 +1°C° 0 mm 2 mps 761 mmHg 73%
    08:00 +2°C° 0 mm 2 mps 761 mmHg 69%
    09:00 +3°C° 0 mm 2 mps 761 mmHg 64%
    10:00 +4°C° 0 mm 2 mps 761 mmHg 60%
    11:00 +6°C° 0 mm 2 mps 760 mmHg 55%
    12:00 +6°C° 0 mm 2 mps 760 mmHg 54%
    13:00 +7°C° 0 mm 2 mps 760 mmHg 54%
    14:00 +7°C° 0 mm 2 mps 760 mmHg 53%
    15:00 +7°C° 0 mm 3 mps 759 mmHg 55%
    16:00 +7°C° 0 mm 3 mps 759 mmHg 58%
    17:00 +5°C° 0 mm 3 mps 758 mmHg 61%
    18:00 +5°C° 0 mm 3 mps 758 mmHg 64%
    19:00 +4°C° 0 mm 4 mps 758 mmHg 68%
    20:00 +3°C° 0 mm 4 mps 757 mmHg 72%
    21:00 +3°C° 0 mm 4 mps 757 mmHg 75%
    22:00 +3°C° 0 mm 5 mps 756 mmHg 79%
    23:00 +5°C° 0 mm 5 mps 756 mmHg 83%

    21 September, Saturday

    Time Temperature Precipitation Wind Pressure Humidity
    00:00 +5°C° 0.3 mm 5 mps 755 mmHg 86%
    01:00 +4°C° 0.3 mm 6 mps 754 mmHg 90%
    02:00 +5°C° 0.3 mm 6 mps 753 mmHg 93%
    03:00 +5°C° 0.7 mm 6 mps 752 mmHg 94%
    04:00 +7°C° 0.7 mm 6 mps 751 mmHg 95%
    05:00 +7°C° 0.7 mm 6 mps 750 mmHg 96%
    06:00 +8°C° 0.9 mm 7 mps 749 mmHg 95%
    07:00 +9°C° 0.9 mm 7 mps 749 mmHg 94%
    08:00 +9°C° 0.9 mm 7 mps 748 mmHg 93%
    09:00 +10°C° 0.1 mm 7 mps 747 mmHg 89%
    10:00 +11°C° 0.1 mm 8 mps 747 mmHg 85%
    11:00 +11°C° 0.1 mm 8 mps 747 mmHg 81%
    12:00 +12°C° 0 mm 8 mps 746 mmHg 77%
    13:00 +12°C° 0 mm 8 mps 746 mmHg 74%
    14:00 +13°C° 0 mm 8 mps 746 mmHg 70%
    15:00 +13°C° 0 mm 8 mps 745 mmHg 69%
    16:00 +13°C° 0 mm 9 mps 745 mmHg 68%
    17:00 +13°C° 0 mm 9 mps 745 mmHg 67%
    18:00 +12°C° 0 mm 9 mps 745 mmHg 69%
    19:00 +12°C° 0 mm 9 mps 745 mmHg 71%
    20:00 +11°C° 0 mm 8 mps 745 mmHg 73%
    21:00 +10°C° 0 mm 8 mps 746 mmHg 72%
    22:00 +9°C° 0 mm 7 mps 747 mmHg 71%
    23:00 +8°C° 0 mm 7 mps 748 mmHg 71%
    Show more